Location: Peterborough
(44.3091°N, 78.3197°W)
Time: 17:39:10
(UTC-04:00)

Transit 4A - Pass Details

Date: 27 March 2023
Orbit: 864 x 980 km, 66.8° (Epoch: 04 June)

Event Time Altitude Azimuth Distance (km) Brightness Sun altitude
Rises 09:07:14 0° 262° (W) 3,449 10.4 21.0°
Reaches altitude 10° 09:10:27 10° 280° (W) 2,526 9.7 21.5°
Maximum altitude 09:14:32 19° 325° (NW) 1,975 9.3 22.2°
Drops below altitude 10° 09:18:42 10° 9° (N) 2,577 10.2 22.9°
Sets 09:22:02 0° 27° (NNE) 3,543 11.0 23.5°
